カタログに戻る

COSMOS 1348

運用中軍事HEO
NORAD 13124·PAYLOAD·🇷🇺 Russia

打ち上げ Apr 7, 1982 から Plesetsk Cosmodrome

Loading…

次のパス (今後24時間)

TLE

最新Source: Space-Track

元期: Sep 14, 2026, 09:33 UTC

1 13124U 82029A   26257.39831190  .00000032  00000-0  00000-0 0  9993
2 13124  71.7701 142.3580 4801344 329.6658 246.4929  2.00362270325178

AllMySatでCOSMOS 1348をリアルタイム追跡

Download on the App Store